TITAN 3C TRANSTAGE DEB, 1961

Orbit data source: Space-Track

TITAN 3C TRANSTAGE DEB, 1961 is space debris in LEO originally from a launch on Fri, 15 Oct 1965 UTC launched from the Air Force Eastern Test Range (AFETR). Debris objects in space refer to the collection of defunct objects orbiting the Earth. Examples of debris include non-operational satellites, rocket bodies, and fragments generated from explosions, collisions, or faulty payload assembly.

Loading next visibility...
Identifier
1961, 1965-082GW
Orbit
LEO
Country
Flag of USUS
Related business
Manufacturer
Unknown
Mission
Spacecraft
Bus & Motor
Unknown
Mass
Unknown
Launch date (UTC)
1965-10-15 (60 years ago)
Launch vehicle
Unknown
Launch site
Air Force Eastern Test Range (AFETR)
Object type
Payload
Rocket body
Debris
Shape & HBR
Unknown shape, 0.1 m
Radar Cross Section
Small (<0.1 m²)

Expand to show TLE details & history
Last TLE update: 20 hours ago

TLE from 20 hours ago
0 TITAN 3C TRANSTAGE DEB
1 01961U 65082GW  25309.62909251  .00007632  00000-0  42344-3 0  9999
2 01961  31.8576 286.2297 0003797 206.0737 153.9727 15.12537247210235
Epoch: 2025-11-05T15:05Z
TLE epoch observation values (Epoch: 2025-11-05T15:05:53.592Z)
Latitude
-0.00001°
Longitude
14.65736°
Altitude
529.414 km
Speed
7.599 km/s
True Right ascension
19h 04m 55s
True Declination
0° 00' 00"
Sunlit
Object was in daylight at epoch
Visualization orbit readout
Latitude
Unknown
Longitude
Unknown
Altitude
Unknown
Speed
Unknown
Apparent Right ascension
Unknown
Apparent Declination
Unknown
Sunlit
N/A
Visualization observer readout
Local Sidereal Time
07:14:28
Azimuth
Unknown
Elevation
Unknown
Doppler factor
Unknown
Orbital elements
Apogee altitude
534.807 km
Perigee altitude
529.559 km
Semi-major axis
6,910.32 km
Eccentricity
0.00038
Inclination
31.8576°
RAAN
286.2297°
Arg. of periapsis
206.0737°
True anomaly
153.99178°
Mean anomaly
153.9727°
Eccentric anomaly
153.98224°
Mean motion
3.7783 °/min
Orbital period
95.28 mins
BSTAR
0.00042344

Documentation

Showing up to 5 results
|